TimeCST,TemperatureF,Dew PointF,Humidity,Sea Level PressureIn,VisibilityMPH,Wind Direction,Wind SpeedMPH,Gust SpeedMPH,PrecipitationIn,Events,Conditions,WindDirDegrees,DateUTC
12:53 AM,37.0,33.1,86,30.25,10.0,Calm,Calm,-,N/A,,Clear,0,2014-01-01 06:53:00
1:53 AM,36.0,33.1,89,30.24,9.0,SE,4.6,-,N/A,,Clear,130,2014-01-01 07:53:00
2:53 AM,37.0,33.1,86,30.23,8.0,Calm,Calm,-,N/A,,Clear,0,2014-01-01 08:53:00
3:53 AM,36.0,33.1,89,30.22,7.0,SE,3.5,-,N/A,,Partly Cloudy,140,2014-01-01 09:53:00
4:53 AM,37.9,34.0,86,30.20,10.0,Calm,Calm,-,N/A,,Mostly Cloudy,0,2014-01-01 10:53:00
5:53 AM,37.0,34.0,89,30.21,9.0,SSE,3.5,-,N/A,,Partly Cloudy,150,2014-01-01 11:53:00
6:07 AM,37.4,33.8,87,30.21,9.0,Calm,Calm,-,N/A,,Scattered Clouds,0,2014-01-01 12:07:00
6:16 AM,37.4,33.8,87,30.20,9.0,Calm,Calm,-,N/A,,Mostly Cloudy,0,2014-01-01 12:16:00
6:53 AM,39.9,37.0,89,30.20,9.0,Calm,Calm,-,N/A,,Overcast,0,2014-01-01 12:53:00
7:33 AM,42.8,39.2,87,30.19,6.0,SE,3.5,-,N/A,,Overcast,130,2014-01-01 13:33:00
7:53 AM,42.1,39.0,89,30.20,6.0,SE,3.5,-,N/A,,Overcast,130,2014-01-01 13:53:00
8:53 AM,44.1,41.0,89,30.19,4.0,ESE,5.8,-,N/A,,Overcast,120,2014-01-01 14:53:00
9:53 AM,48.0,44.1,86,30.20,6.0,South,6.9,-,N/A,,Overcast,170,2014-01-01 15:53:00
10:03 AM,48.2,44.6,87,30.20,6.0,South,5.8,-,N/A,,Haze,190,2014-01-01 16:03:00
10:20 AM,50.0,44.6,82,30.19,7.0,South,5.8,-,N/A,,Overcast,180,2014-01-01 16:20:00
10:53 AM,51.1,45.0,80,30.18,9.0,South,5.8,-,N/A,,Overcast,170,2014-01-01 16:53:00
11:02 AM,51.8,46.4,82,30.17,10.0,South,6.9,-,N/A,,Overcast,180,2014-01-01 17:02:00
11:20 AM,53.6,46.4,77,30.16,10.0,South,5.8,-,N/A,,Overcast,190,2014-01-01 17:20:00
11:53 AM,55.9,48.0,75,30.13,10.0,Calm,Calm,-,N/A,,Overcast,0,2014-01-01 17:53:00
12:53 PM,61.0,50.0,67,30.09,10.0,SSW,9.2,-,N/A,,Overcast,210,2014-01-01 18:53:00
1:53 PM,63.0,51.1,65,30.05,10.0,South,12.7,-,N/A,,Overcast,190,2014-01-01 19:53:00
2:53 PM,64.0,51.1,63,30.03,10.0,South,10.4,-,N/A,,Overcast,190,2014-01-01 20:53:00
3:53 PM,63.0,51.1,65,30.03,10.0,South,11.5,-,N/A,,Overcast,190,2014-01-01 21:53:00
4:53 PM,62.1,53.1,72,30.02,10.0,South,3.5,-,0.00,,Overcast,180,2014-01-01 22:53:00
5:53 PM,60.1,53.1,78,30.01,10.0,South,3.5,-,0.00,,Overcast,170,2014-01-01 23:53:00
6:04 PM,60.8,53.6,77,30.02,10.0,South,3.5,-,N/A,,Overcast,180,2014-01-02 00:04:00
6:53 PM,60.1,54.0,80,30.02,10.0,South,5.8,-,N/A,,Overcast,170,2014-01-02 00:53:00
7:53 PM,59.0,54.0,83,30.03,10.0,South,5.8,-,N/A,,Overcast,170,2014-01-02 01:53:00
8:53 PM,57.9,54.0,87,30.04,10.0,South,4.6,-,N/A,,Mostly Cloudy,180,2014-01-02 02:53:00
9:10 PM,59.0,55.4,88,30.04,10.0,South,5.8,-,N/A,,Overcast,180,2014-01-02 03:10:00
9:53 PM,57.0,54.0,89,30.04,9.0,South,4.6,-,N/A,,Scattered Clouds,170,2014-01-02 03:53:00
10:06 PM,57.2,55.4,94,30.04,8.0,South,3.5,-,N/A,,Mostly Cloudy,170,2014-01-02 04:06:00
10:53 PM,57.9,55.0,90,30.05,7.0,Calm,Calm,-,N/A,,Overcast,0,2014-01-02 04:53:00
11:53 PM,59.0,55.9,90,30.04,7.0,SSW,3.5,-,N/A,,Overcast,200,2014-01-02 05:53:00